Regional Weather Roundup
Issued by NWS

Home | Current Version | Previous Version | Graphics & Text | Print | Product List | Glossary On
Versions: 1 2 3 4 5 6 7 8 9 10 11 12 13 14 15 16 17 18 19 20 21 22 23 24 25 26 27 28 29 30 31 32 33 34 35 36 37 38 39 40 41 42 43 44 45 46 47 48 49 50
000
ASUS44 KMEG 091910
RWRTN
TENNESSEE HOURLY STATE WEATHER ROUNDUP
NATIONAL WEATHER SERVICE MEMPHIS TN
200 PM CDT WED JUL 09 2014

TNZ002-004-019-021-049-052-054-088>092-092000-
WEST TENNESSEE

CITY           SKY/WX    TMP DP  RH WIND       PRES   REMARKS
MEMPHIS INTL   CLOUDY    79  70  74 W7        30.03F
NWS MEMPHIS      N/A     81 N/A N/A MISG        N/A
JACKSON        CLOUDY    80  71  74 SW6       30.02F
DYERSBURG      MOSUNNY   84  61  45 W7        30.01F
UNION CITY     MOSUNNY   84  63  48 W7        30.00S
PARIS          MOSUNNY   82  66  58 W5        30.02S
LEXINGTON        N/A     75  72  88 SW9       30.02F
SAVANNAH       PTSUNNY   81  74  79 W7        30.03F
$$

TNZ008-025-027-028-033-062-065-066-092000-
NORTH MIDDLE TENNESSEE

CITY           SKY/WX    TMP DP  RH WIND       PRES   REMARKS
NASHVILLE      PTSUNNY   85  69  58 W5        30.01F
DICKSON        PTSUNNY   82  68  61 SW7       30.02F
PORTLAND       MOSUNNY   84  64  51 CALM      30.00F
CLARKSVILLE    PTSUNNY   86  63  45 W12       29.99F
LEBANON        PTSUNNY   81  70  69 S10       30.00F
SMYRNA         PTSUNNY   85  71  62 S7        30.02F HX  90
COOKEVILLE     PTSUNNY   81  72  74 SW5       30.04S
LIVINGSTON     CLOUDY    77  69  76 SW8       30.04
GALLATIN       PTSUNNY   85  70  60 VRB5      30.01F
CROSSVILLE     CLOUDY    75  67  76 SW5       30.07F
$$

TNZ061-075-076-078-094-096-097-092000-
SOUTH MIDDLE TENNESSEE

CITY           SKY/WX    TMP DP  RH WIND       PRES   REMARKS
LEWISBURG      PTSUNNY   82  68  62 CALM      30.02F
TULLAHOMA      CLOUDY    79  70  73 SW5       30.06S
WINCHESTER     PTSUNNY   81  70  69 W5        30.05F
MCMINNVILLE    CLOUDY    77  73  88 SW7       30.05S
COLUMBIA       PTSUNNY   81  72  74 VRB5      30.02S
$$

TNZ017-018-042-046-047-092000-
NORTHEAST TENNESSEE

CITY           SKY/WX    TMP DP  RH WIND       PRES   REMARKS
TRI CITIES     PTSUNNY   78  69  73 SW14      30.03F
ELIZABETHTON   CLOUDY    72  68  88 N3        30.05S
$$

TNZ012-013-036-069-073-074-092000-
CENTRAL EAST TENNESSEE

CITY           SKY/WX    TMP DP  RH WIND       PRES   REMARKS
KNOXVILLE      PTSUNNY   81  66  60 SW12      30.02F
OAK RIDGE      CLOUDY    79  72  79 S3        30.03F
$$

TNZ083-085-099-092000-
SOUTHEAST TENNESSEE

CITY           SKY/WX    TMP DP  RH WIND       PRES   REMARKS
CHATTANOOGA    PTSUNNY   84  67  56 SW7       30.03F
$$

SKY/WX REPORTED AS FAIR MEANS FEW OR NO CLOUDS BELOW
12 THOUSAND FEET.



USA.gov is the U.S. government's official web portal to all federal, state and local government web resources and services.